Powrót do katalogu

SL-12 DEB

AktywnyHEO
NORAD 27958·DEBRIS·🇷🇺 Russia

Wystrzelony Sep 16, 1987 z Baikonur Cosmodrome

Loading…

Następne Przeloty (najbliższe 24 godziny)

TLE

ŚwieżeSource: Space-Track

Epoka: Sep 11, 2026, 23:32 UTC

1 27958U 87079AX  26254.98088078  .00076375  00000-0  31581-1 0  9996
2 27958  65.2014 245.8152 4205629 312.6945  18.7952  6.86012342 11811

Śledź SL-12 DEB w czasie rzeczywistym z AllMySat

Download on the App Store